Location: Buckhorn Peak
(37.6641°N, 120.1241°W)
Time: 14:04:02
(UTC+00:00)

Transit 2A Rocket - All Passes

Search period start: 09 November 2024 00:00
Search period end: 19 November 2024 00:00
Orbit: 584 x 906 km, 66.7° (Epoch: 08 November)

Date Brightness Start Highest point End Pass type
(mag) Time Alt. Az. Time Alt. Az. Time Alt. Az.
09 Nov - 01:26:25 10° NNE 01:28:03 11° NE 01:29:39 10° ENE visible
09 Nov - 03:06:24 10° NNW 03:11:32 77° ENE 03:16:10 10° SSE visible
09 Nov - 15:58:17 10° ESE 16:00:15 12° ESE 16:02:12 10° E daylight
09 Nov - 17:35:50 10° SSW 17:41:54 86° ESE 17:47:53 10° NNE daylight
09 Nov - 19:21:09 10° W 19:25:06 18° NW 19:28:58 10° N daylight
10 Nov - 02:22:02 10° NNW 02:26:53 40° NE 02:31:18 10° SE visible
10 Nov - 04:05:19 10° WNW 04:08:55 20° WSW 04:12:18 10° SSW visible
10 Nov - 16:51:38 10° S 16:57:26 49° ESE 17:03:10 10° NE daylight
10 Nov - 18:35:02 10° WSW 18:40:09 28° NW 18:45:10 10° N daylight
11 Nov - 01:37:58 10° N 01:42:03 23° NE 01:45:50 10° ESE visible
11 Nov - 03:20:00 10° NW 03:24:40 40° WSW 03:28:57 10° S visible
11 Nov - 16:08:04 10° SSE 16:13:05 28° ESE 16:18:05 10° NE daylight
11 Nov - 17:49:34 10° SW 17:55:21 46° WNW 18:01:02 10° NNE daylight
12 Nov - 00:54:24 10° NNE 00:57:03 14° NE 00:59:34 10° ENE daylight
12 Nov - 02:35:12 10° NNW 02:40:17 81° WSW 02:44:52 10° SSE visible
12 Nov - 15:25:29 10° SE 15:28:51 15° ESE 15:32:12 10° ENE daylight
12 Nov - 17:04:38 10° SSW 17:10:41 77° WNW 17:16:39 10° NNE daylight
12 Nov - 18:50:53 10° WNW 18:54:05 15° NW 18:57:13 10° N daylight
13 Nov - 01:50:43 10° NNW 01:55:41 52° ENE 02:00:12 10° SE visible
13 Nov - 03:34:43 10° WNW 03:37:29 15° WSW 03:40:08 10° SW visible
13 Nov - 16:20:12 10° SSW 16:26:10 62° ESE 16:32:01 10° NE daylight
13 Nov - 18:04:21 10° W 18:09:03 23° NW 18:13:39 10° N daylight
14 Nov - 01:06:30 10° N 01:10:55 28° NE 01:14:59 10° ESE daylight
14 Nov - 02:48:59 10° NW 02:53:17 30° WSW 02:57:15 10° S visible
14 Nov - 15:36:20 10° S 15:41:45 35° ESE 15:47:05 10° NE daylight
14 Nov - 17:18:38 10° WSW 17:24:11 37° NW 17:29:37 10° NNE daylight
15 Nov - 00:22:40 10° N 00:25:58 17° NE 00:29:05 10° E daylight
15 Nov - 02:04:00 10° NW 02:08:57 61° WSW 02:13:25 10° SSE visible
15 Nov - 14:53:14 10° SSE 14:57:27 20° ESE 15:01:37 10° ENE daylight
15 Nov - 16:33:28 10° SW 16:39:28 62° WNW 16:45:19 10° NNE daylight
15 Nov - 18:20:55 10° WNW 18:23:02 12° NW 18:25:08 10° NNW daylight
16 Nov - 01:19:23 10° NNW 01:24:25 68° ENE 01:28:58 10° SE visible
16 Nov - 03:04:44 10° W 03:06:00 11° WSW 03:07:14 10° WSW visible
16 Nov - 14:12:54 10° ESE 14:13:16 10° E 14:13:37 10° E visible
16 Nov - 15:48:49 10° SSW 15:54:52 78° ESE 16:00:47 10° NNE daylight
16 Nov - 17:33:47 10° W 17:37:56 19° NW 17:42:01 10° N daylight
17 Nov - 00:35:03 10° NNW 00:39:42 36° NE 00:43:58 10° ESE daylight
17 Nov - 02:18:03 10° NW 02:21:50 23° WSW 02:25:23 10° SSW visible
17 Nov - 15:04:41 10° S 15:10:23 44° ESE 15:15:59 10° NE daylight
17 Nov - 16:47:45 10° WSW 16:53:00 30° NW 16:58:07 10° N daylight
17 Nov - 23:51:02 10° N 23:54:49 21° NE 23:58:21 10° E daylight
18 Nov - 01:32:49 10° NW 01:37:32 45° WSW 01:41:51 10° S visible
18 Nov - 14:21:12 10° SSE 14:26:01 25° ESE 14:30:46 10° NE daylight
18 Nov - 16:02:21 10° SW 16:08:12 50° WNW 16:13:55 10° NNE daylight
18 Nov - 23:07:41 10° NNE 23:09:45 12° NE 23:11:44 10° ENE daylight
